TimeCDT,TemperatureF,Dew PointF,Humidity,Sea Level PressureIn,VisibilityMPH,Wind Direction,Wind SpeedMPH,Gust SpeedMPH,PrecipitationIn,Events,Conditions,WindDirDegrees,DateUTC
12:53 AM,70.0,66.0,87,30.12,10.0,Calm,Calm,-,N/A,,Clear,0,2013-08-27 05:53:00
1:53 AM,70.0,66.0,87,30.10,10.0,Calm,Calm,-,N/A,,Clear,0,2013-08-27 06:53:00
2:53 AM,69.1,64.9,87,30.09,10.0,Calm,Calm,-,N/A,,Clear,0,2013-08-27 07:53:00
3:53 AM,68.0,64.9,90,30.08,10.0,NE,3.5,-,N/A,,Clear,40,2013-08-27 08:53:00
4:53 AM,68.0,64.0,87,30.08,10.0,Calm,Calm,-,N/A,,Clear,0,2013-08-27 09:53:00
5:53 AM,68.0,64.0,87,30.09,10.0,Calm,Calm,-,N/A,,Clear,0,2013-08-27 10:53:00
6:53 AM,69.1,64.9,87,30.10,10.0,Calm,Calm,-,N/A,,Clear,0,2013-08-27 11:53:00
7:53 AM,72.0,66.9,84,30.12,10.0,ENE,3.5,-,N/A,,Partly Cloudy,60,2013-08-27 12:53:00
8:04 AM,73.4,68.0,83,30.11,10.0,NE,3.5,-,N/A,,Mostly Cloudy,50,2013-08-27 13:04:00
8:51 AM,75.2,69.8,83,30.12,10.0,ENE,4.6,-,N/A,,Overcast,60,2013-08-27 13:51:00
8:53 AM,75.9,70.0,82,30.11,10.0,NE,5.8,-,N/A,,Overcast,50,2013-08-27 13:53:00
9:04 AM,77.0,69.8,78,30.11,10.0,NE,4.6,-,N/A,,Mostly Cloudy,50,2013-08-27 14:04:00
9:11 AM,78.8,69.8,74,30.11,10.0,East,5.8,-,N/A,,Scattered Clouds,80,2013-08-27 14:11:00
9:53 AM,80.1,71.1,74,30.10,10.0,ENE,4.6,-,N/A,,Clear,70,2013-08-27 14:53:00
10:30 AM,82.4,71.6,70,30.11,10.0,Variable,6.9,-,N/A,,Mostly Cloudy,0,2013-08-27 15:30:00
10:53 AM,82.0,70.0,67,30.10,10.0,East,5.8,-,N/A,,Scattered Clouds,80,2013-08-27 15:53:00
11:53 AM,84.0,70.0,63,30.08,10.0,East,4.6,-,N/A,,Partly Cloudy,80,2013-08-27 16:53:00
12:53 PM,87.1,70.0,57,30.06,10.0,Variable,3.5,-,N/A,,Partly Cloudy,0,2013-08-27 17:53:00
1:53 PM,88.0,68.0,51,30.04,10.0,ESE,3.5,-,N/A,,Clear,120,2013-08-27 18:53:00
2:53 PM,88.0,68.0,51,30.03,10.0,NE,8.1,-,N/A,,Partly Cloudy,40,2013-08-27 19:53:00
3:53 PM,90.0,66.9,46,30.01,10.0,Calm,Calm,-,N/A,,Scattered Clouds,0,2013-08-27 20:53:00
4:53 PM,89.1,66.9,48,30.00,10.0,Variable,3.5,-,N/A,,Clear,0,2013-08-27 21:53:00
5:53 PM,88.0,66.9,49,30.01,10.0,Calm,Calm,-,N/A,,Clear,0,2013-08-27 22:53:00
6:53 PM,84.0,70.0,63,30.01,10.0,North,3.5,-,N/A,,Clear,350,2013-08-27 23:53:00
7:53 PM,81.0,71.1,72,30.02,10.0,Calm,Calm,-,N/A,,Clear,0,2013-08-28 00:53:00
8:53 PM,79.0,72.0,79,30.03,10.0,NNE,4.6,-,N/A,,Mostly Cloudy,20,2013-08-28 01:53:00
9:53 PM,79.0,70.0,74,30.04,10.0,NE,3.5,-,N/A,,Overcast,40,2013-08-28 02:53:00
10:53 PM,77.0,69.1,76,30.04,10.0,NE,4.6,-,N/A,,Scattered Clouds,40,2013-08-28 03:53:00
11:53 PM,75.0,68.0,79,30.03,10.0,NE,3.5,-,N/A,,Clear,40,2013-08-28 04:53:00